New Bedford, MA

2:45 PM EDT on July 23, 2017 (GMT -0400)
New Bedford Regional

Weather History for KEWB - July, 2013

Change the Weather History Date:

Sunday, July 28, 2013

  Actual Average Record
Temperature  
Mean Temperature 74 °F -  
Max Temperature 82 °F 81 °F 96 °F (1963)
Min Temperature 69 °F 66 °F 48 °F (2001)
Cooling Degree Days 10    
Growing Degree Days 24 (Base 50)    
Moisture  
Dew Point 70 °F    
Average Humidity 90    
Maximum Humidity 100    
Minimum Humidity 71    
Precipitation  
Precipitation 0.21 in - - ()
Sea Level Pressure  
Sea Level Pressure 29.98 in    
Wind  
Wind Speed 3 mph (South)    
Max Wind Speed 12 mph    
Max Gust Speed -    
Visibility 7 miles    
Events Rain    
Averages and records for this station are not official NWS values.
T = Trace of Precipitation, MM = Missing Value Source: NWS Daily Summary

Daily Weather History Graph

Daily Weather History Graph

Search for Another Location

Airport or City:

Trip Planner

Search our weather history database for the weather conditions in past years. The results will help you decide how hot, cold, wet, or windy it might be!

Date:

Astronomy

Jul. 28, 2013 Rise Set
Actual Time 5:34 AM EDT 8:05 PM EDT
Civil Twilight 5:02 AM EDT 8:37 PM EDT
Nautical Twilight 4:23 AM EDT 9:16 PM EDT
Astronomical Twilight 3:38 AM EDT 10:00 PM EDT
Moon 11:18 PM EDT (7/28) 12:20 PM EDT (7/28)
Length of Visible Light 15h 34m
Length of Day
14h 31m
Waning Gibbous, 61% of the Moon is Illuminated
Jul 28
Waning Gibbous
Jul 29
Last Quarter
Aug 6
New
Aug 14
First Quarter
Aug 20
Full

Hourly Weather History & Observations

Time (EDT) Temp. Heat Index Dew Point Humidity Pressure Visibility Wind Dir Wind Speed Gust Speed Precip Events Conditions
12:53 AM 69.1 °F - 68.0 °F 96% 29.99 in 7.0 mi ENE 3.5 mph - 0.00 in   Overcast
1:11 AM 69.8 °F - 68.0 °F 94% 29.99 in 10.0 mi ENE 3.5 mph - N/A   Mostly Cloudy
1:53 AM 70.0 °F - 69.1 °F 97% 29.97 in 9.0 mi Calm Calm - N/A   Overcast
2:05 AM 69.8 °F - 69.8 °F 100% 29.98 in 8.0 mi Calm Calm - N/A   Overcast
2:29 AM 69.8 °F - 69.8 °F 100% 29.98 in 6.0 mi Calm Calm - 0.00 in Rain Light Rain
2:53 AM 70.0 °F - 69.1 °F 97% 29.97 in 3.0 mi Calm Calm - 0.05 in Rain Rain
3:53 AM 71.1 °F - 70.0 °F 96% 29.95 in 6.0 mi Calm Calm - 0.01 in   Overcast
4:27 AM 69.8 °F - 69.8 °F 100% 29.95 in 2.5 mi Calm Calm - 0.06 in Rain Rain
4:34 AM 69.8 °F - 69.8 °F 100% 29.95 in 4.0 mi North 3.5 mph - 0.07 in Rain Light Rain
4:53 AM 70.0 °F - 70.0 °F 100% 29.96 in 3.0 mi Calm Calm - 0.10 in Rain Rain
5:09 AM 71.6 °F - 69.8 °F 94% 29.95 in 5.0 mi North 3.5 mph - 0.02 in Rain Light Rain
5:16 AM 71.6 °F - 69.8 °F 94% 29.95 in 5.0 mi NNE 3.5 mph - 0.02 in Rain Light Rain
5:53 AM 71.1 °F - 70.0 °F 96% 29.95 in 5.0 mi Calm Calm - 0.02 in   Overcast
6:53 AM 72.0 °F - 71.1 °F 97% 29.96 in 2.0 mi Calm Calm - N/A   Overcast
7:53 AM 72.0 °F - 71.1 °F 97% 29.97 in 2.0 mi Calm Calm - 0.02 in Rain Light Rain
8:53 AM 73.0 °F - 72.0 °F 96% 29.96 in 2.0 mi Calm Calm - 0.00 in   Overcast
9:53 AM 73.9 °F - 72.0 °F 93% 29.97 in 5.0 mi Calm Calm - N/A   Overcast
10:24 AM 73.4 °F - 71.6 °F 94% 29.98 in 6.0 mi NW 3.5 mph - N/A   Overcast
10:53 AM 73.9 °F - 71.1 °F 91% 29.98 in 7.0 mi NW 5.8 mph - N/A   Overcast
11:53 AM 75.0 °F - 71.1 °F 87% 29.98 in 10.0 mi Variable 3.5 mph - N/A   Overcast
12:23 PM 78.8 °F - 71.6 °F 78% 29.98 in 10.0 mi Variable 3.5 mph - N/A   Overcast
12:36 PM 78.8 °F - 71.6 °F 78% 29.98 in 10.0 mi Calm Calm - N/A   Mostly Cloudy
12:53 PM 78.1 °F - 70.0 °F 76% 29.98 in 10.0 mi NE 3.5 mph - N/A   Mostly Cloudy
1:53 PM 80.1 °F 83.2 °F 70.0 °F 71% 29.96 in 10.0 mi East 4.6 mph - N/A   Mostly Cloudy
2:53 PM 79.0 °F - 72.0 °F 79% 29.96 in 10.0 mi South 10.4 mph - 0.01 in   Mostly Cloudy
3:53 PM 77.0 °F - 70.0 °F 79% 29.98 in 10.0 mi SSW 11.5 mph - N/A   Scattered Clouds
4:14 PM 75.2 °F - 69.8 °F 83% 29.98 in 10.0 mi South 9.2 mph - N/A   Mostly Cloudy
4:53 PM 73.9 °F - 68.0 °F 82% 29.98 in 10.0 mi South 10.4 mph - N/A   Scattered Clouds
5:53 PM 73.9 °F - 68.0 °F 82% 29.97 in 10.0 mi SSW 8.1 mph - N/A   Clear
6:53 PM 73.0 °F - 68.0 °F 84% 29.99 in 10.0 mi SSW 6.9 mph - N/A   Clear
7:53 PM 72.0 °F - 68.0 °F 87% 30.00 in 10.0 mi SSW 3.5 mph - 0.00 in   Mostly Cloudy
8:53 PM 71.1 °F - 68.0 °F 90% 30.00 in 10.0 mi Calm Calm - N/A   Clear
9:53 PM 71.1 °F - 69.1 °F 93% 30.01 in 10.0 mi Calm Calm - 0.00 in   Partly Cloudy
10:53 PM 70.0 °F - 68.0 °F 93% 30.01 in 9.0 mi SW 3.5 mph - 0.00 in   Partly Cloudy
11:53 PM 70.0 °F - 68.0 °F 93% 30.01 in 10.0 mi South 3.5 mph - N/A   Partly Cloudy